Weather Roundup
Issued by NWS Springfield, MO

Home | Current Version | Previous Version | Text Only | Print | Product List | Glossary On
Versions: 1 2 3 4 5 6 7 8 9 10 11 12 13 14 15 16 17 18 19 20 21 22 23 24 25 26 27 28 29 30 31 32 33 34 35 36 37 38 39 40 41 42 43 44 45 46 47 48 49 50
000
NZUS99 KSGF 241007
HRRSGF

HOURLY WEATHER
NATIONAL WEATHER SERVICE SPRINGFIELD MO
500 AM CDT SUN MAY 24 2015

......SGF CWA......

CITY           SKY/WX    TMP DP  RH WIND       PRES   REMARKS
SPRINGFIELD    CLOUDY    67  59  75 SE16      29.96S
JOPLIN         LGT RAIN  65  63  93 S14       29.92R
WEST PLAINS    PTCLDY    64  55  72 SE7       30.06F
ROLLA          CLOUDY    62  55  77 E9        30.01F
OSAGE BEACH    CLOUDY    66  54  63 SE6       29.98F
BRANSON        CLOUDY    64  63  94 SE7       30.00R

......SURROUNDING SGF CWA......

CITY           SKY/WX    TMP DP  RH WIND       PRES   REMARKS
CHANUTE        CLOUDY    63  62  97 S7        29.88R
PARSONS        CLOUDY    64  64 100 S6        29.88F
COFFEYVILLE    CLOUDY    63  63 100 S9        29.86S
EMPORIA        CLOUDY    61  60  97 S3        29.88S
GROVE OK       RAIN      64  64 100 SE7       29.93S
ROGERS AR      HVY RAIN  67  65  93 W14       29.98R FOG
SILOAM SPRINGS CLOUDY    63  57  82 S5        29.97S
HARRISON AR    LGT RAIN  69  64  84 S14       30.00S
NEAR YELLVILLE PTCLDY    64  59  82 CALM      29.99F

......KANSAS AND MISSOURI......

CITY           SKY/WX    TMP DP  RH WIND       PRES   REMARKS
KANSAS CTY INT LGT RAIN  61  60  97 SE10      29.88S FOG
DOWNTOWN KC    CLOUDY    64  60  87 SE9       29.86F
COLUMBIA       LGT RAIN  62  56  80 E9        30.01F
SEDALIA        LGT RAIN  61  57  87 VRB7      29.99F
ST JOSEPH      LGT RAIN  62  60  93 SE10      29.88F
ST LOUIS       CLOUDY    66  54  65 E7        30.10S
SPIRIT OF STL  CLOUDY    65  55  70 E7        30.07F
KIRKSVILLE     RAIN      60  59  96 E9        30.03F FOG
WICHITA        CLOUDY    60  58  92 E9        29.85F
TOPEKA         CLOUDY    65  63  93 S7        29.86F
OLATHE         CLOUDY    64  63  96 S15G23    29.86F

......TENNESSEE......

CITY           SKY/WX    TMP DP  RH WIND       PRES   REMARKS
MEMPHIS        CLEAR     71  59  65 SE10      30.10S
NASHVILLE      PTCLDY    61  53  75 SE5       30.24R

......ARKANSAS.......

CITY           SKY/WX    TMP DP  RH WIND       PRES   REMARKS
FAYETTEVILLE   LGT RAIN  69  67  93 S10       29.95F
FT SMITH       CLOUDY    71  67  87 SE5       29.93S
LITTLE ROCK    CLOUDY    73  65  75 S6        30.03S

......OKLAHOMA.......

CITY           SKY/WX    TMP DP  RH WIND       PRES   REMARKS
TULSA          LGT RAIN  63  62  97 S13       29.90R
PONCA CITY     CLOUDY    62  61  96 S7        29.82S
MCALESTER      HVY RAIN  62  61  96 NE5       29.96R FOG
OKLAHOMA CITY  CLOUDY    60  59  96 S10       29.88R

......IOWA............

CITY           SKY/WX    TMP DP  RH WIND       PRES   REMARKS
DES MOINES     LGT RAIN  61  57  87 SE10      29.99F
QUAD CITIES    LGT RAIN  61  54  77 E8        30.12F

......ILLINOIS........

CITY           SKY/WX    TMP DP  RH WIND       PRES   REMARKS
QUINCY         CLOUDY    61  58  90 E9        30.07F
CHICAGO        CLOUDY    61  48  62 SE3       30.19S




USA.gov is the U.S. government's official web portal to all federal, state and local government web resources and services.